DLH2PC EDDF-EDDM

Flight info

Callsign DLH2PC
Flight time N/A
Altitude 23000
Route CINDY2D CINDY Z74 HAREM T104 ROKIL ROKIL1A
Aircraft A320/M-SDE3FGHIRWY/LB1

Departure

Time 2026-05-08 01:23
Airport Frankfurt Main Airport (EDDF)

Arrival

Time N/A
Airport Munich Airport (EDDM)
Time Latitude Longitude Altitude Speed Heading
2026-05-08 00:57 50.04175 8.56097 353 ft 0 kts 160°
2026-05-08 01:18 50.04166 8.56103 363 ft 6 kts 160°
2026-05-08 01:18 50.04120 8.56129 358 ft 7 kts 162°
2026-05-08 01:19 50.04082 8.56090 359 ft 7 kts 244°
2026-05-08 01:19 50.04055 8.55977 351 ft 16 kts 249°
2026-05-08 01:19 50.04015 8.55810 355 ft 16 kts 249°
2026-05-08 01:19 50.03976 8.55651 352 ft 15 kts 249°
2026-05-08 01:20 50.03941 8.55503 350 ft 14 kts 250°
2026-05-08 01:20 50.03910 8.55371 349 ft 13 kts 250°
2026-05-08 01:20 50.03881 8.55248 355 ft 11 kts 250°
2026-05-08 01:20 50.03854 8.55136 350 ft 11 kts 249°
2026-05-08 01:21 50.03828 8.55030 353 ft 10 kts 249°
2026-05-08 01:21 50.03799 8.54909 352 ft 17 kts 249°
2026-05-08 01:21 50.03717 8.54853 351 ft 16 kts 133°
2026-05-08 01:21 50.03692 8.55025 350 ft 18 kts 99°
2026-05-08 01:22 50.03683 8.55223 353 ft 16 kts 72°
2026-05-08 01:22 50.03735 8.55431 347 ft 40 kts 69°
2026-05-08 01:22 50.03924 8.56224 361 ft 113 kts 69°
2026-05-08 01:22 50.04261 8.57640 434 ft 159 kts 70°
2026-05-08 01:23 50.04620 8.59264 1160 ft 160 kts 70°
2026-05-08 01:23 50.04985 8.60924 1892 ft 167 kts 72°
2026-05-08 01:23 50.03688 8.55067 350 ft 19 kts 99°
2026-05-08 01:23 50.03692 8.55258 345 ft 16 kts 68°
2026-05-08 01:24 50.03761 8.55538 350 ft 58 kts 70°
2026-05-08 01:24 50.03987 8.56486 360 ft 125 kts 69°